Time,TemperatureF,DewpointF,PressureIn,WindDirection,WindDirectionDegrees,WindSpeedMPH,WindSpeedGustMPH,Humidity,HourlyPrecipIn,Conditions,Clouds,dailyrainin,SoftwareType,DateUTC
2013-10-09 00:00:00,78.0,72.1,29.93,NNW,330,2.0,3.0,82,0.00,,,0.00,Wunderground v.1.15,2013-10-09 04:00:00,
2013-10-09 00:04:00,77.8,71.9,29.93,NW,323,1.0,3.0,82,0.00,,,0.00,Wunderground v.1.15,2013-10-09 04:04:00,
2013-10-09 00:09:00,77.7,71.8,29.93,NNW,338,2.0,-999.0,82,0.00,,,0.03,Wunderground v.1.15,2013-10-09 04:09:00,
2013-10-09 00:14:00,77.7,72.1,29.93,NW,315,1.0,-999.0,83,0.00,,,0.03,Wunderground v.1.15,2013-10-09 04:14:00,
2013-10-09 00:15:00,77.7,72.1,29.92,NW,305,2.0,2.0,83,0.00,,,0.00,Wunderground v.1.15,2013-10-09 04:15:00,
2013-10-09 00:19:00,77.5,71.9,29.92,NW,315,2.0,-999.0,83,0.00,,,0.03,Wunderground v.1.15,2013-10-09 04:19:00,
2013-10-09 00:20:00,77.5,71.9,29.92,NW,323,2.0,2.0,83,0.00,,,0.00,Wunderground v.1.15,2013-10-09 04:20:00,
2013-10-09 00:24:00,77.4,71.8,29.92,NW,315,1.0,-999.0,83,0.00,,,0.03,Wunderground v.1.15,2013-10-09 04:24:00,
2013-10-09 00:29:00,77.3,71.7,29.92,NNW,338,1.0,-999.0,83,0.00,,,0.03,Wunderground v.1.15,2013-10-09 04:29:00,
2013-10-09 00:30:00,77.3,71.7,29.92,NNW,328,1.0,1.0,83,0.00,,,0.00,Wunderground v.1.15,2013-10-09 04:30:00,
2013-10-09 00:34:00,77.2,71.6,29.92,NW,315,2.0,-999.0,83,0.00,,,0.03,Wunderground v.1.15,2013-10-09 04:34:00,
2013-10-09 00:39:00,77.2,71.6,29.92,NW,313,2.0,2.0,83,0.00,,,0.00,Wunderground v.1.15,2013-10-09 04:39:00,
2013-10-09 00:44:00,77.2,72.0,29.92,NW,315,2.0,-999.0,84,0.00,,,0.03,Wunderground v.1.15,2013-10-09 04:44:00,
2013-10-09 00:49:00,77.1,71.9,29.92,NW,323,2.0,2.0,84,0.00,,,0.00,Wunderground v.1.15,2013-10-09 04:49:00,
2013-10-09 00:54:00,77.0,71.8,29.92,NW,315,2.0,-999.0,84,0.00,,,0.03,Wunderground v.1.15,2013-10-09 04:54:00,
2013-10-09 00:55:00,77.0,71.8,29.92,NNW,330,2.0,3.0,84,0.00,,,0.00,Wunderground v.1.15,2013-10-09 04:55:00,
2013-10-09 00:59:00,76.9,71.7,29.92,WNW,293,2.0,-999.0,84,0.00,,,0.03,Wunderground v.1.15,2013-10-09 04:59:00,
2013-10-09 01:00:00,76.9,71.7,29.92,NNW,328,2.0,3.0,84,0.00,,,0.00,Wunderground v.1.15,2013-10-09 05:00:00,
2013-10-09 01:04:00,76.8,71.6,29.92,NW,315,2.0,-999.0,84,0.00,,,0.03,Wunderground v.1.15,2013-10-09 05:04:00,
2013-10-09 01:09:00,76.8,71.6,29.92,NW,315,2.0,-999.0,84,0.00,,,0.03,Wunderground v.1.15,2013-10-09 05:09:00,
2013-10-09 01:10:00,76.8,71.6,29.92,NW,321,2.0,2.0,84,0.00,,,0.00,Wunderground v.1.15,2013-10-09 05:10:00,
2013-10-09 01:14:00,76.7,71.5,29.91,NW,315,2.0,-999.0,84,0.00,,,0.03,Wunderground v.1.15,2013-10-09 05:14:00,
2013-10-09 01:15:00,76.7,71.5,29.91,NW,318,2.0,2.0,84,0.00,,,0.00,Wunderground v.1.15,2013-10-09 05:15:00,
2013-10-09 01:19:00,76.6,71.4,29.92,NW,315,1.0,-999.0,84,0.00,,,0.03,Wunderground v.1.15,2013-10-09 05:19:00,
2013-10-09 01:20:00,76.6,71.4,29.92,NW,309,2.0,2.0,84,0.00,,,0.00,Wunderground v.1.15,2013-10-09 05:20:00,
2013-10-09 01:24:00,76.4,71.2,29.92,WNW,293,1.0,-999.0,84,0.00,,,0.03,Wunderground v.1.15,2013-10-09 05:24:00,
2013-10-09 01:29:00,76.3,71.5,29.92,NNW,328,1.0,3.0,85,0.00,,,0.00,Wunderground v.1.15,2013-10-09 05:29:00,
2013-10-09 01:34:00,76.2,71.4,29.92,NW,315,2.0,-999.0,85,0.00,,,0.03,Wunderground v.1.15,2013-10-09 05:34:00,
2013-10-09 01:39:00,76.2,71.4,29.92,WNW,296,2.0,2.0,85,0.00,,,0.00,Wunderground v.1.15,2013-10-09 05:39:00,
2013-10-09 01:44:00,76.1,71.3,29.92,NW,315,1.0,-999.0,85,0.00,,,0.03,Wunderground v.1.15,2013-10-09 05:44:00,
2013-10-09 01:45:00,76.1,71.3,29.92,NW,324,1.0,3.0,85,0.00,,,0.00,Wunderground v.1.15,2013-10-09 05:45:00,
2013-10-09 01:49:00,76.0,71.2,29.92,NW,315,2.0,-999.0,85,0.00,,,0.03,Wunderground v.1.15,2013-10-09 05:49:00,
2013-10-09 01:54:00,75.9,71.4,29.92,NW,315,1.0,-999.0,86,0.00,,,0.03,Wunderground v.1.15,2013-10-09 05:54:00,
2013-10-09 01:55:00,75.9,71.4,29.92,NW,317,2.0,2.0,86,0.00,,,0.00,Wunderground v.1.15,2013-10-09 05:55:00,
2013-10-09 01:59:00,75.8,71.3,29.92,NW,315,1.0,-999.0,86,0.00,,,0.03,Wunderground v.1.15,2013-10-09 05:59:00,
2013-10-09 02:00:00,75.8,71.3,29.92,NW,315,1.0,1.0,86,0.00,,,0.00,Wunderground v.1.15,2013-10-09 06:00:00,
2013-10-09 02:04:00,75.7,71.2,29.92,NW,315,2.0,-999.0,86,0.00,,,0.03,Wunderground v.1.15,2013-10-09 06:04:00,
2013-10-09 02:09:00,75.6,71.5,29.92,NNW,338,1.0,-999.0,87,0.00,,,0.03,Wunderground v.1.15,2013-10-09 06:09:00,
2013-10-09 02:10:00,75.6,71.5,29.92,NW,322,1.0,1.0,87,0.00,,,0.00,Wunderground v.1.15,2013-10-09 06:10:00,
2013-10-09 02:14:00,75.5,71.4,29.92,NW,315,2.0,-999.0,87,0.00,,,0.03,Wunderground v.1.15,2013-10-09 06:14:00,
2013-10-09 02:19:00,75.3,71.2,29.91,NNW,328,2.0,2.0,87,0.00,,,0.00,Wunderground v.1.15,2013-10-09 06:19:00,
2013-10-09 02:24:00,75.3,71.5,29.92,NW,315,1.0,-999.0,88,0.00,,,0.03,Wunderground v.1.15,2013-10-09 06:24:00,
2013-10-09 02:25:00,75.3,71.5,29.92,WNW,300,2.0,2.0,88,0.00,,,0.00,Wunderground v.1.15,2013-10-09 06:25:00,
2013-10-09 02:29:00,75.2,71.1,29.92,NW,315,1.0,-999.0,87,0.00,,,0.03,Wunderground v.1.15,2013-10-09 06:29:00,
2013-10-09 02:34:00,75.2,71.4,29.92,WNW,293,1.0,-999.0,88,0.00,,,0.03,Wunderground v.1.15,2013-10-09 06:34:00,
2013-10-09 02:35:00,75.2,71.4,29.92,WNW,302,1.0,1.0,88,0.00,,,0.00,Wunderground v.1.15,2013-10-09 06:35:00,
2013-10-09 02:39:00,75.1,71.3,29.92,WNW,293,1.0,-999.0,88,0.00,,,0.03,Wunderground v.1.15,2013-10-09 06:39:00,
2013-10-09 02:44:00,74.9,71.1,29.92,NW,315,1.0,-999.0,88,0.00,,,0.03,Wunderground v.1.15,2013-10-09 06:44:00,
2013-10-09 02:45:00,74.9,71.1,29.92,NW,317,1.0,1.0,88,0.00,,,0.00,Wunderground v.1.15,2013-10-09 06:45:00,
2013-10-09 02:49:00,74.9,71.1,29.92,WNW,293,1.0,-999.0,88,0.00,,,0.03,Wunderground v.1.15,2013-10-09 06:49:00,
2013-10-09 02:54:00,74.8,71.0,29.92,NW,313,1.0,2.0,88,0.00,,,0.00,Wunderground v.1.15,2013-10-09 06:54:00,
2013-10-09 02:59:00,74.7,70.9,29.92,NNW,338,1.0,-999.0,88,0.00,,,0.03,Wunderground v.1.15,2013-10-09 06:59:00,
2013-10-09 03:00:00,74.7,70.9,29.92,NNW,330,1.0,1.0,88,0.00,,,0.00,Wunderground v.1.15,2013-10-09 07:00:00,
2013-10-09 03:04:00,74.6,70.8,29.92,NNW,338,1.0,-999.0,88,0.00,,,0.03,Wunderground v.1.15,2013-10-09 07:04:00,
2013-10-09 03:09:00,74.4,70.9,29.91,NNW,328,1.0,1.0,89,0.00,,,0.00,Wunderground v.1.15,2013-10-09 07:09:00,
2013-10-09 03:14:00,74.2,70.7,29.92,N/A,-737280,0.0,-999.0,89,0.00,,,0.03,Wunderground v.1.15,2013-10-09 07:14:00,
2013-10-09 03:15:00,74.2,70.7,29.92,NNW,328,0.0,1.0,89,0.00,,,0.00,Wunderground v.1.15,2013-10-09 07:15:00,
2013-10-09 03:19:00,73.9,70.5,29.92,N/A,-737280,0.0,-999.0,89,0.00,,,0.03,Wunderground v.1.15,2013-10-09 07:19:00,
2013-10-09 03:24:00,73.7,70.6,29.92,NNW,338,0.0,-999.0,90,0.00,,,0.03,Wunderground v.1.15,2013-10-09 07:24:00,
2013-10-09 03:25:00,73.7,70.6,29.92,NNW,328,0.0,1.0,90,0.00,,,0.00,Wunderground v.1.15,2013-10-09 07:25:00,
2013-10-09 03:29:00,73.7,70.6,29.91,NNW,338,0.0,-999.0,90,0.00,,,0.03,Wunderground v.1.15,2013-10-09 07:29:00,
2013-10-09 03:34:00,73.7,70.6,29.91,NNW,328,0.0,0.0,90,0.00,,,0.00,Wunderground v.1.15,2013-10-09 07:34:00,
2013-10-09 03:39:00,73.8,70.7,29.91,NNW,338,1.0,-999.0,90,0.00,,,0.03,Wunderground v.1.15,2013-10-09 07:39:00,
2013-10-09 03:44:00,73.7,70.6,29.91,NNW,328,0.0,1.0,90,0.00,,,0.00,Wunderground v.1.15,2013-10-09 07:44:00,
2013-10-09 03:49:00,73.6,70.5,29.91,NNW,338,0.0,-999.0,90,0.00,,,0.03,Wunderground v.1.15,2013-10-09 07:49:00,
2013-10-09 03:50:00,73.6,70.5,29.91,NNW,328,0.0,0.0,90,0.00,,,0.00,Wunderground v.1.15,2013-10-09 07:50:00,
2013-10-09 03:54:00,73.7,70.9,29.90,NNW,338,0.0,-999.0,91,0.00,,,0.03,Wunderground v.1.15,2013-10-09 07:54:00,
2013-10-09 03:59:00,73.6,70.8,29.90,NNW,338,0.0,-999.0,91,0.00,,,0.03,Wunderground v.1.15,2013-10-09 07:59:00,
2013-10-09 04:00:00,73.6,70.8,29.91,NNW,328,0.0,0.0,91,0.00,,,0.00,Wunderground v.1.15,2013-10-09 08:00:00,
2013-10-09 04:04:00,73.5,70.7,29.90,N/A,-737280,0.0,-999.0,91,0.00,,,0.03,Wunderground v.1.15,2013-10-09 08:04:00,
2013-10-09 04:09:00,73.6,71.1,29.91,N/A,-737280,0.0,-999.0,92,0.00,,,0.03,Wunderground v.1.15,2013-10-09 08:09:00,
2013-10-09 04:10:00,73.6,71.1,29.91,NW,326,0.0,0.0,92,0.00,,,0.00,Wunderground v.1.15,2013-10-09 08:10:00,
2013-10-09 04:14:00,73.6,70.8,29.91,N/A,-737280,0.0,-999.0,91,0.00,,,0.03,Wunderground v.1.15,2013-10-09 08:14:00,
2013-10-09 04:15:00,73.6,70.8,29.91,NW,320,0.0,0.0,91,0.00,,,0.00,Wunderground v.1.15,2013-10-09 08:15:00,
2013-10-09 04:19:00,73.7,71.2,29.91,N/A,-737280,0.0,-999.0,92,0.00,,,0.03,Wunderground v.1.15,2013-10-09 08:19:00,
2013-10-09 04:24:00,73.7,70.9,29.91,NW,308,0.0,0.0,91,0.00,,,0.00,Wunderground v.1.15,2013-10-09 08:24:00,
2013-10-09 04:29:00,73.6,71.1,29.91,NW,315,0.0,-999.0,92,0.00,,,0.03,Wunderground v.1.15,2013-10-09 08:29:00,
2013-10-09 04:34:00,73.6,71.1,29.91,NW,315,1.0,-999.0,92,0.00,,,0.03,Wunderground v.1.15,2013-10-09 08:34:00,
2013-10-09 04:35:00,73.6,71.1,29.91,NW,311,0.0,1.0,92,0.00,,,0.00,Wunderground v.1.15,2013-10-09 08:35:00,
2013-10-09 04:39:00,73.6,71.1,29.91,NW,315,1.0,-999.0,92,0.00,,,0.03,Wunderground v.1.15,2013-10-09 08:39:00,
2013-10-09 04:44:00,73.5,71.0,29.90,NW,315,0.0,-999.0,92,0.00,,,0.03,Wunderground v.1.15,2013-10-09 08:44:00,
2013-10-09 04:45:00,73.5,71.0,29.90,NW,314,1.0,1.0,92,0.00,,,0.00,Wunderground v.1.15,2013-10-09 08:45:00,
2013-10-09 04:49:00,73.5,71.0,29.90,NW,315,0.0,-999.0,92,0.00,,,0.03,Wunderground v.1.15,2013-10-09 08:49:00,
2013-10-09 04:54:00,73.5,71.0,29.90,NW,321,0.0,1.0,92,0.00,,,0.00,Wunderground v.1.15,2013-10-09 08:54:00,
2013-10-09 04:59:00,73.5,71.4,29.91,N/A,-737280,0.0,-999.0,93,0.00,,,0.03,Wunderground v.1.15,2013-10-09 08:59:00,
2013-10-09 05:00:00,73.5,71.4,29.91,WNW,287,0.0,0.0,93,0.00,,,0.00,Wunderground v.1.15,2013-10-09 09:00:00,
2013-10-09 05:04:00,73.6,71.4,29.91,N/A,-737280,0.0,-999.0,93,0.00,,,0.03,Wunderground v.1.15,2013-10-09 09:04:00,
2013-10-09 05:09:00,73.5,71.0,29.91,WNW,290,0.0,0.0,92,0.00,,,0.00,Wunderground v.1.15,2013-10-09 09:09:00,
2013-10-09 05:14:00,73.6,71.1,29.91,N/A,-737280,0.0,-999.0,92,0.00,,,0.03,Wunderground v.1.15,2013-10-09 09:14:00,
2013-10-09 05:19:00,73.6,71.1,29.91,N/A,-737280,0.0,-999.0,92,0.00,,,0.03,Wunderground v.1.15,2013-10-09 09:19:00,
2013-10-09 05:20:00,73.6,71.1,29.91,WNW,288,0.0,0.0,92,0.00,,,0.00,Wunderground v.1.15,2013-10-09 09:20:00,
2013-10-09 05:24:00,73.8,71.3,29.91,N/A,-737280,0.0,-999.0,92,0.00,,,0.03,Wunderground v.1.15,2013-10-09 09:24:00,
2013-10-09 05:29:00,73.7,71.2,29.91,WNW,293,1.0,-999.0,92,0.00,,,0.03,Wunderground v.1.15,2013-10-09 09:29:00,
2013-10-09 05:30:00,73.7,71.2,29.91,WNW,302,1.0,1.0,92,0.00,,,0.00,Wunderground v.1.15,2013-10-09 09:30:00,
2013-10-09 05:34:00,73.7,70.9,29.91,NW,315,1.0,-999.0,91,0.00,,,0.03,Wunderground v.1.15,2013-10-09 09:34:00,
2013-10-09 05:39:00,73.7,70.9,29.92,NW,309,1.0,1.0,91,0.00,,,0.00,Wunderground v.1.15,2013-10-09 09:39:00,
2013-10-09 05:44:00,73.6,70.8,29.92,WNW,293,0.0,-999.0,91,0.00,,,0.03,Wunderground v.1.15,2013-10-09 09:44:00,
2013-10-09 05:49:00,73.5,70.7,29.92,WNW,293,0.0,-999.0,91,0.00,,,0.03,Wunderground v.1.15,2013-10-09 09:49:00,
2013-10-09 05:50:00,73.5,70.7,29.92,WNW,294,0.0,0.0,91,0.00,,,0.00,Wunderground v.1.15,2013-10-09 09:50:00,
2013-10-09 05:54:00,73.3,70.5,29.92,N/A,-737280,0.0,-999.0,91,0.00,,,0.03,Wunderground v.1.15,2013-10-09 09:54:00,
2013-10-09 05:59:00,73.1,70.6,29.92,N/A,-737280,0.0,-999.0,92,0.00,,,0.03,Wunderground v.1.15,2013-10-09 09:59:00,
2013-10-09 06:00:00,73.1,70.6,29.92,WNW,294,0.0,0.0,92,0.00,,,0.00,Wunderground v.1.15,2013-10-09 10:00:00,
2013-10-09 06:04:00,73.0,70.5,29.92,NW,315,0.0,-999.0,92,0.00,,,0.03,Wunderground v.1.15,2013-10-09 10:04:00,
2013-10-09 06:09:00,73.1,70.6,29.92,NW,315,0.0,-999.0,92,0.00,,,0.03,Wunderground v.1.15,2013-10-09 10:09:00,
2013-10-09 06:10:00,73.1,70.6,29.92,NW,321,0.0,2.0,92,0.00,,,0.00,Wunderground v.1.15,2013-10-09 10:10:00,
2013-10-09 06:14:00,73.0,70.5,29.92,NW,315,0.0,-999.0,92,0.00,,,0.03,Wunderground v.1.15,2013-10-09 10:14:00,
2013-10-09 06:19:00,72.9,70.4,29.92,N/A,-737280,0.0,-999.0,92,0.00,,,0.03,Wunderground v.1.15,2013-10-09 10:19:00,
2013-10-09 06:20:00,72.9,70.4,29.92,NW,321,0.0,0.0,92,0.00,,,0.00,Wunderground v.1.15,2013-10-09 10:20:00,
2013-10-09 06:24:00,72.7,70.2,29.92,N/A,-737280,0.0,-999.0,92,0.00,,,0.03,Wunderground v.1.15,2013-10-09 10:24:00,
2013-10-09 06:29:00,72.6,70.5,29.92,N/A,-737280,0.0,-999.0,93,0.00,,,0.03,Wunderground v.1.15,2013-10-09 10:29:00,
2013-10-09 06:30:00,72.6,70.5,29.92,NW,321,0.0,0.0,93,0.00,,,0.00,Wunderground v.1.15,2013-10-09 10:30:00,
2013-10-09 06:34:00,72.6,70.5,29.92,N/A,-737280,0.0,-999.0,93,0.00,,,0.03,Wunderground v.1.15,2013-10-09 10:34:00,
2013-10-09 06:39:00,72.4,70.3,29.92,NW,321,0.0,0.0,93,0.00,,,0.00,Wunderground v.1.15,2013-10-09 10:39:00,
2013-10-09 06:44:00,72.2,70.1,29.92,N/A,-737280,0.0,-999.0,93,0.00,,,0.03,Wunderground v.1.15,2013-10-09 10:44:00,
2013-10-09 06:49:00,72.1,70.0,29.93,N/A,-737280,0.0,-999.0,93,0.00,,,0.03,Wunderground v.1.15,2013-10-09 10:49:00,
2013-10-09 06:50:00,72.1,70.0,29.93,NW,321,0.0,0.0,93,0.00,,,0.00,Wunderground v.1.15,2013-10-09 10:50:00,
2013-10-09 06:54:00,72.2,70.4,29.93,N/A,-737280,0.0,-999.0,94,0.00,,,0.03,Wunderground v.1.15,2013-10-09 10:54:00,
2013-10-09 06:59:00,72.3,70.5,29.93,N/A,-737280,0.0,-999.0,94,0.00,,,0.03,Wunderground v.1.15,2013-10-09 10:59:00,
2013-10-09 07:00:00,72.3,70.5,29.93,NW,321,0.0,0.0,94,0.00,,,0.00,Wunderground v.1.15,2013-10-09 11:00:00,
2013-10-09 07:04:00,72.3,70.5,29.93,N/A,-737280,0.0,-999.0,94,0.00,,,0.03,Wunderground v.1.15,2013-10-09 11:04:00,
2013-10-09 07:09:00,72.3,70.5,29.93,N/A,-737280,0.0,-999.0,94,0.00,,,0.03,Wunderground v.1.15,2013-10-09 11:09:00,
2013-10-09 07:10:00,72.3,70.5,29.93,NW,320,0.0,0.0,94,0.00,,,0.00,Wunderground v.1.15,2013-10-09 11:10:00,
2013-10-09 07:14:00,72.4,70.6,29.93,N/A,-737280,0.0,-999.0,94,0.00,,,0.03,Wunderground v.1.15,2013-10-09 11:14:00,
2013-10-09 07:19:00,72.6,70.8,29.93,NW,320,0.0,0.0,94,0.00,,,0.00,Wunderground v.1.15,2013-10-09 11:19:00,
2013-10-09 07:24:00,72.6,70.8,29.93,N/A,-737280,0.0,-999.0,94,0.00,,,0.03,Wunderground v.1.15,2013-10-09 11:24:00,
2013-10-09 07:29:00,72.7,70.9,29.93,NW,321,0.0,0.0,94,0.00,,,0.00,Wunderground v.1.15,2013-10-09 11:29:00,
2013-10-09 07:34:00,72.6,70.5,29.93,N/A,-737280,0.0,-999.0,93,0.00,,,0.03,Wunderground v.1.15,2013-10-09 11:34:00,
2013-10-09 07:35:00,72.6,70.5,29.93,NW,321,0.0,0.0,93,0.00,,,0.00,Wunderground v.1.15,2013-10-09 11:35:00,
2013-10-09 07:39:00,72.6,70.8,29.93,N/A,-737280,0.0,-999.0,94,0.00,,,0.03,Wunderground v.1.15,2013-10-09 11:39:00,
2013-10-09 07:44:00,72.8,71.0,29.93,N/A,-737280,0.0,-999.0,94,0.00,,,0.03,Wunderground v.1.15,2013-10-09 11:44:00,
2013-10-09 07:45:00,72.8,71.0,29.93,NW,321,0.0,0.0,94,0.00,,,0.00,Wunderground v.1.15,2013-10-09 11:45:00,
2013-10-09 07:49:00,73.1,71.3,29.93,N/A,-737280,0.0,-999.0,94,0.00,,,0.03,Wunderground v.1.15,2013-10-09 11:49:00,
2013-10-09 07:54:00,73.4,71.6,29.93,WNW,302,0.0,0.0,94,0.00,,,0.00,Wunderground v.1.15,2013-10-09 11:54:00,
2013-10-09 07:59:00,73.7,71.5,29.94,NW,315,0.0,-999.0,93,0.00,,,0.03,Wunderground v.1.15,2013-10-09 11:59:00,
2013-10-09 08:00:00,73.7,71.5,29.94,NNW,330,0.0,0.0,93,0.00,,,0.00,Wunderground v.1.15,2013-10-09 12:00:00,
2013-10-09 08:04:00,74.1,71.9,29.94,N/A,-737280,0.0,-999.0,93,0.00,,,0.03,Wunderground v.1.15,2013-10-09 12:04:00,
2013-10-09 08:09:00,74.7,72.5,29.94,NNW,330,0.0,0.0,93,0.00,,,0.00,Wunderground v.1.15,2013-10-09 12:09:00,
2013-10-09 08:14:00,75.1,72.6,29.94,NNW,330,0.0,1.0,92,0.00,,,0.00,Wunderground v.1.15,2013-10-09 12:14:00,
2013-10-09 08:19:00,75.4,72.6,29.94,WNW,293,2.0,-999.0,91,0.00,,,0.03,Wunderground v.1.15,2013-10-09 12:19:00,
2013-10-09 08:20:00,75.4,72.3,29.94,WNW,291,2.0,2.0,90,0.00,,,0.00,Wunderground v.1.15,2013-10-09 12:20:00,
2013-10-09 08:24:00,75.8,72.7,29.94,WNW,293,3.0,-999.0,90,0.00,,,0.03,Wunderground v.1.15,2013-10-09 12:24:00,
2013-10-09 08:29:00,76.3,72.8,29.94,WNW,293,2.0,-999.0,89,0.00,,,0.03,Wunderground v.1.15,2013-10-09 12:29:00,
2013-10-09 08:30:00,76.3,72.8,29.94,WNW,290,3.0,4.0,89,0.00,,,0.00,Wunderground v.1.15,2013-10-09 12:30:00,
2013-10-09 08:34:00,76.7,72.9,29.94,WNW,293,3.0,-999.0,88,0.00,,,0.03,Wunderground v.1.15,2013-10-09 12:34:00,
2013-10-09 08:39:00,77.0,73.2,29.95,NW,315,3.0,-999.0,88,0.00,,,0.03,Wunderground v.1.15,2013-10-09 12:39:00,
2013-10-09 08:40:00,76.9,73.1,29.95,NW,324,3.0,3.0,88,0.00,,,0.00,Wunderground v.1.15,2013-10-09 12:40:00,
2013-10-09 08:44:00,77.5,73.7,29.95,NNW,338,3.0,-999.0,88,0.00,,,0.03,Wunderground v.1.15,2013-10-09 12:44:00,
2013-10-09 08:49:00,77.8,73.6,29.95,NNW,338,3.0,-999.0,87,0.00,,,0.03,Wunderground v.1.15,2013-10-09 12:49:00,
2013-10-09 08:50:00,77.8,73.6,29.95,North,354,3.0,4.0,87,0.00,,,0.00,Wunderground v.1.15,2013-10-09 12:50:00,
2013-10-09 08:54:00,78.5,74.3,29.95,NW,315,2.0,-999.0,87,0.00,,,0.03,Wunderground v.1.15,2013-10-09 12:54:00,
2013-10-09 08:59:00,78.4,73.9,29.95,NW,315,4.0,-999.0,86,0.00,,,0.03,Wunderground v.1.15,2013-10-09 12:59:00,
2013-10-09 09:00:00,78.4,73.9,29.95,NW,319,3.0,3.0,86,0.00,,,0.00,Wunderground v.1.15,2013-10-09 13:00:00,
2013-10-09 09:04:00,78.6,74.1,29.95,WNW,293,2.0,-999.0,86,0.00,,,0.03,Wunderground v.1.15,2013-10-09 13:04:00,
2013-10-09 09:09:00,78.7,73.8,29.95,NW,315,2.0,-999.0,85,0.00,,,0.03,Wunderground v.1.15,2013-10-09 13:09:00,
2013-10-09 09:10:00,78.7,73.8,29.95,NW,325,2.0,5.0,85,0.00,,,0.00,Wunderground v.1.15,2013-10-09 13:10:00,
2013-10-09 09:14:00,78.7,74.2,29.96,NW,315,2.0,-999.0,86,0.00,,,0.03,Wunderground v.1.15,2013-10-09 13:14:00,
2013-10-09 09:19:00,78.5,73.6,29.96,NW,315,4.0,-999.0,85,0.00,,,0.03,Wunderground v.1.15,2013-10-09 13:19:00,
2013-10-09 09:20:00,78.5,73.6,29.96,NW,310,3.0,3.0,85,0.00,,,0.00,Wunderground v.1.15,2013-10-09 13:20:00,
2013-10-09 09:24:00,78.5,74.0,29.96,NW,315,3.0,-999.0,86,0.00,,,0.03,Wunderground v.1.15,2013-10-09 13:24:00,
2013-10-09 09:25:00,78.5,74.0,29.96,WNW,290,3.0,3.0,86,0.00,,,0.00,Wunderground v.1.15,2013-10-09 13:25:00,
2013-10-09 09:29:00,78.5,73.6,29.96,NW,315,3.0,-999.0,85,0.00,,,0.03,Wunderground v.1.15,2013-10-09 13:29:00,
2013-10-09 09:34:00,78.4,73.9,29.96,NW,315,4.0,-999.0,86,0.00,,,0.03,Wunderground v.1.15,2013-10-09 13:34:00,
2013-10-09 09:35:00,78.4,73.9,29.96,NW,309,3.0,4.0,86,0.00,,,0.00,Wunderground v.1.15,2013-10-09 13:35:00,
2013-10-09 09:39:00,78.5,74.0,29.96,NW,315,3.0,-999.0,86,0.00,,,0.03,Wunderground v.1.15,2013-10-09 13:39:00,
2013-10-09 09:44:00,79.0,74.5,29.97,WNW,300,3.0,4.0,86,0.00,,,0.00,Wunderground v.1.15,2013-10-09 13:44:00,
2013-10-09 09:49:00,79.5,74.6,29.97,NW,315,3.0,-999.0,85,0.00,,,0.03,Wunderground v.1.15,2013-10-09 13:49:00,
2013-10-09 09:54:00,80.2,74.9,29.97,NNW,338,1.0,-999.0,84,0.00,,,0.03,Wunderground v.1.15,2013-10-09 13:54:00,
2013-10-09 09:55:00,80.2,74.9,29.97,NNW,347,2.0,3.0,84,0.00,,,0.00,Wunderground v.1.15,2013-10-09 13:55:00,
2013-10-09 09:59:00,80.6,75.0,29.97,NNW,338,2.0,-999.0,83,0.00,,,0.03,Wunderground v.1.15,2013-10-09 13:59:00,
2013-10-09 10:04:00,80.1,74.5,29.97,North,350,3.0,3.0,83,0.00,,,0.00,Wunderground v.1.15,2013-10-09 14:04:00,
2013-10-09 10:09:00,80.7,74.7,29.97,NW,315,3.0,-999.0,82,0.00,,,0.03,Wunderground v.1.15,2013-10-09 14:09:00,
2013-10-09 10:14:00,80.8,74.8,29.97,NNW,329,4.0,9.0,82,0.00,,,0.00,Wunderground v.1.15,2013-10-09 14:14:00,
2013-10-09 10:19:00,81.3,75.6,29.97,NW,315,3.0,-999.0,83,0.00,,,0.03,Wunderground v.1.15,2013-10-09 14:19:00,
2013-10-09 10:20:00,81.3,75.6,29.97,NW,311,3.0,3.0,83,0.00,,,0.00,Wunderground v.1.15,2013-10-09 14:20:00,
2013-10-09 10:24:00,81.7,75.3,29.97,NW,315,2.0,-999.0,81,0.00,,,0.03,Wunderground v.1.15,2013-10-09 14:24:00,
2013-10-09 10:29:00,81.0,74.6,29.97,NW,315,4.0,-999.0,81,0.00,,,0.03,Wunderground v.1.15,2013-10-09 14:29:00,
2013-10-09 10:30:00,81.0,74.6,29.97,NW,312,3.0,3.0,81,0.00,,,0.00,Wunderground v.1.15,2013-10-09 14:30:00,
2013-10-09 10:34:00,80.9,74.1,29.98,NW,315,4.0,-999.0,80,0.00,,,0.03,Wunderground v.1.15,2013-10-09 14:34:00,
2013-10-09 10:39:00,80.9,74.9,29.98,ENE,58,4.0,4.0,82,0.00,,,0.00,Wunderground v.1.15,2013-10-09 14:39:00,
2013-10-09 10:44:00,81.3,74.5,29.98,NNW,338,3.0,-999.0,80,0.00,,,0.03,Wunderground v.1.15,2013-10-09 14:44:00,
2013-10-09 10:49:00,81.6,75.2,29.98,NW,315,3.0,-999.0,81,0.00,,,0.03,Wunderground v.1.15,2013-10-09 14:49:00,
2013-10-09 10:50:00,81.6,75.2,29.97,ENE,61,3.0,3.0,81,0.00,,,0.00,Wunderground v.1.15,2013-10-09 14:50:00,
2013-10-09 10:54:00,81.6,75.2,29.98,NNW,338,4.0,-999.0,81,0.00,,,0.03,Wunderground v.1.15,2013-10-09 14:54:00,
2013-10-09 10:59:00,81.6,74.8,29.98,NW,315,2.0,-999.0,80,0.00,,,0.03,Wunderground v.1.15,2013-10-09 14:59:00,
2013-10-09 11:00:00,81.5,74.7,29.98,NNE,19,3.0,3.0,80,0.00,,,0.00,Wunderground v.1.15,2013-10-09 15:00:00,
2013-10-09 11:04:00,81.4,74.6,29.98,North,0,2.0,-999.0,80,0.00,,,0.03,Wunderground v.1.15,2013-10-09 15:04:00,
2013-10-09 11:09:00,81.4,75.0,29.98,NNW,338,2.0,-999.0,81,0.00,,,0.03,Wunderground v.1.15,2013-10-09 15:09:00,
2013-10-09 11:10:00,81.4,75.0,29.98,NE,47,2.0,2.0,81,0.00,,,0.00,Wunderground v.1.15,2013-10-09 15:10:00,
2013-10-09 11:14:00,81.5,74.7,29.98,NNW,338,2.0,-999.0,80,0.00,,,0.03,Wunderground v.1.15,2013-10-09 15:14:00,
2013-10-09 11:19:00,81.2,74.4,29.98,North,352,3.0,3.0,80,0.00,,,0.00,Wunderground v.1.15,2013-10-09 15:19:00,
2013-10-09 11:24:00,81.2,74.8,29.98,NNW,338,2.0,-999.0,81,0.00,,,0.03,Wunderground v.1.15,2013-10-09 15:24:00,
2013-10-09 11:29:00,81.3,74.9,29.99,ENE,64,2.0,2.0,81,0.00,,,0.00,Wunderground v.1.15,2013-10-09 15:29:00,
2013-10-09 11:34:00,81.3,75.3,29.98,NNW,338,1.0,-999.0,82,0.00,,,0.03,Wunderground v.1.15,2013-10-09 15:34:00,
2013-10-09 11:39:00,81.0,74.6,29.98,NNW,338,3.0,-999.0,81,0.00,,,0.03,Wunderground v.1.15,2013-10-09 15:39:00,
2013-10-09 11:40:00,81.0,74.6,29.98,NNW,336,2.0,7.0,81,0.00,,,0.00,Wunderground v.1.15,2013-10-09 15:40:00,
2013-10-09 11:44:00,81.0,75.3,29.98,NNW,338,1.0,-999.0,83,0.00,,,0.03,Wunderground v.1.15,2013-10-09 15:44:00,
2013-10-09 11:49:00,81.1,75.1,29.98,NW,324,2.0,5.0,82,0.00,,,0.00,Wunderground v.1.15,2013-10-09 15:49:00,
2013-10-09 11:54:00,81.2,75.2,29.98,NNW,338,2.0,-999.0,82,0.00,,,0.03,Wunderground v.1.15,2013-10-09 15:54:00,
2013-10-09 11:59:00,81.2,75.2,29.98,ENE,68,1.0,-999.0,82,0.00,,,0.03,Wunderground v.1.15,2013-10-09 15:59:00,
2013-10-09 12:00:00,81.2,75.2,29.98,WNW,300,2.0,2.0,82,0.00,,,0.00,Wunderground v.1.15,2013-10-09 16:00:00,
2013-10-09 12:04:00,81.3,75.3,29.98,ENE,68,2.0,-999.0,82,0.00,,,0.03,Wunderground v.1.15,2013-10-09 16:04:00,
2013-10-09 12:09:00,81.8,75.8,29.98,NNW,342,2.0,2.0,82,0.00,,,0.00,Wunderground v.1.15,2013-10-09 16:09:00,
2013-10-09 12:14:00,82.3,75.5,29.98,NNW,338,3.0,-999.0,80,0.00,,,0.03,Wunderground v.1.15,2013-10-09 16:14:00,
2013-10-09 12:15:00,82.3,75.5,29.98,WNW,290,3.0,3.0,80,0.00,,,0.00,Wunderground v.1.15,2013-10-09 16:15:00,
2013-10-09 12:19:00,82.8,75.6,29.98,NNW,338,3.0,-999.0,79,0.00,,,0.03,Wunderground v.1.15,2013-10-09 16:19:00,
2013-10-09 12:24:00,83.9,76.3,29.98,ENE,68,2.0,-999.0,78,0.00,,,0.03,Wunderground v.1.15,2013-10-09 16:24:00,
2013-10-09 12:25:00,83.8,76.2,29.98,NE,47,3.0,3.0,78,0.00,,,0.00,Wunderground v.1.15,2013-10-09 16:25:00,
2013-10-09 12:29:00,84.2,76.2,29.97,ENE,68,2.0,-999.0,77,0.00,,,0.03,Wunderground v.1.15,2013-10-09 16:29:00,
2013-10-09 12:34:00,84.4,76.0,29.97,SW,214,2.0,2.0,76,0.00,,,0.00,Wunderground v.1.15,2013-10-09 16:34:00,
2013-10-09 12:39:00,84.4,76.4,29.97,NNW,338,3.0,-999.0,77,0.00,,,0.03,Wunderground v.1.15,2013-10-09 16:39:00,
2013-10-09 12:44:00,84.9,76.9,29.96,NNW,338,2.0,-999.0,77,0.00,,,0.03,Wunderground v.1.15,2013-10-09 16:44:00,
2013-10-09 12:45:00,84.9,76.9,29.96,WSW,237,2.0,3.0,77,0.00,,,0.00,Wunderground v.1.15,2013-10-09 16:45:00,
2013-10-09 12:49:00,85.0,76.2,29.96,NNW,338,3.0,-999.0,75,0.00,,,0.03,Wunderground v.1.15,2013-10-09 16:49:00,
2013-10-09 12:54:00,83.9,76.3,29.96,NW,315,4.0,-999.0,78,0.00,,,0.03,Wunderground v.1.15,2013-10-09 16:54:00,
2013-10-09 12:55:00,83.9,76.3,29.96,NNW,330,3.0,4.0,78,0.00,,,0.00,Wunderground v.1.15,2013-10-09 16:55:00,
2013-10-09 12:59:00,83.8,75.8,29.95,NNW,338,3.0,-999.0,77,0.00,,,0.03,Wunderground v.1.15,2013-10-09 16:59:00,
2013-10-09 13:00:00,83.7,75.7,29.96,WNW,291,4.0,5.0,77,0.00,,,0.00,Wunderground v.1.15,2013-10-09 17:00:00,
2013-10-09 13:04:00,84.0,76.4,29.95,NNW,338,2.0,-999.0,78,0.00,,,0.03,Wunderground v.1.15,2013-10-09 17:04:00,
2013-10-09 13:09:00,84.0,76.0,29.95,NW,315,3.0,-999.0,77,0.00,,,0.03,Wunderground v.1.15,2013-10-09 17:09:00,
2013-10-09 13:10:00,84.0,76.0,29.95,NW,322,3.0,6.0,77,0.00,,,0.00,Wunderground v.1.15,2013-10-09 17:10:00,
2013-10-09 13:14:00,83.6,76.4,29.95,ENE,68,2.0,-999.0,79,0.00,,,0.03,Wunderground v.1.15,2013-10-09 17:14:00,
2013-10-09 13:19:00,83.5,76.3,29.95,East,83,3.0,3.0,79,0.00,,,0.00,Wunderground v.1.15,2013-10-09 17:19:00,
2013-10-09 13:24:00,84.3,76.3,29.95,ENE,68,2.0,-999.0,77,0.00,,,0.03,Wunderground v.1.15,2013-10-09 17:24:00,
2013-10-09 13:29:00,84.2,76.2,29.94,North,0,2.0,-999.0,77,0.00,,,0.03,Wunderground v.1.15,2013-10-09 17:29:00,
2013-10-09 13:30:00,84.2,76.2,29.94,NNW,327,2.0,2.0,77,0.00,,,0.00,Wunderground v.1.15,2013-10-09 17:30:00,
2013-10-09 13:34:00,84.2,76.2,29.94,East,90,2.0,-999.0,77,0.00,,,0.03,Wunderground v.1.15,2013-10-09 17:34:00,
2013-10-09 13:39:00,84.9,76.5,29.94,NW,314,2.0,2.0,76,0.00,,,0.00,Wunderground v.1.15,2013-10-09 17:39:00,
2013-10-09 13:44:00,85.6,76.8,29.93,ENE,68,2.0,-999.0,75,0.00,,,0.03,Wunderground v.1.15,2013-10-09 17:44:00,
2013-10-09 13:45:00,85.6,76.8,29.93,ENE,68,2.0,2.0,75,0.00,,,0.00,Wunderground v.1.15,2013-10-09 17:45:00,
2013-10-09 13:49:00,86.5,77.2,29.94,East,90,1.0,-999.0,74,0.00,,,0.03,Wunderground v.1.15,2013-10-09 17:49:00,
2013-10-09 13:54:00,86.9,76.8,29.93,East,96,1.0,2.0,72,0.00,,,0.00,Wunderground v.1.15,2013-10-09 17:54:00,
2013-10-09 13:59:00,86.6,76.5,29.94,ENE,68,2.0,-999.0,72,0.00,,,0.03,Wunderground v.1.15,2013-10-09 17:59:00,
2013-10-09 14:00:00,86.6,76.5,29.94,East,82,2.0,2.0,72,0.00,,,0.00,Wunderground v.1.15,2013-10-09 18:00:00,
2013-10-09 14:04:00,85.6,75.9,29.94,ENE,68,2.0,-999.0,73,0.00,,,0.03,Wunderground v.1.15,2013-10-09 18:04:00,
2013-10-09 14:09:00,85.4,76.6,29.93,NW,316,2.0,8.0,75,0.00,,,0.00,Wunderground v.1.15,2013-10-09 18:09:00,
2013-10-09 14:14:00,85.7,76.5,29.93,ENE,68,2.0,-999.0,74,0.00,,,0.03,Wunderground v.1.15,2013-10-09 18:14:00,
2013-10-09 14:19:00,86.1,77.2,29.93,NE,44,2.0,2.0,75,0.00,,,0.00,Wunderground v.1.15,2013-10-09 18:19:00,
2013-10-09 14:24:00,86.7,77.0,29.93,ENE,68,2.0,-999.0,73,0.00,,,0.03,Wunderground v.1.15,2013-10-09 18:24:00,
2013-10-09 14:29:00,85.7,76.0,29.93,ENE,68,3.0,-999.0,73,0.00,,,0.03,Wunderground v.1.15,2013-10-09 18:29:00,
2013-10-09 14:30:00,85.7,76.0,29.93,West,281,3.0,3.0,73,0.00,,,0.00,Wunderground v.1.15,2013-10-09 18:30:00,
2013-10-09 14:34:00,85.8,76.5,29.93,NE,45,2.0,-999.0,74,0.00,,,0.03,Wunderground v.1.15,2013-10-09 18:34:00,
2013-10-09 14:39:00,86.7,76.6,29.92,West,274,2.0,2.0,72,0.00,,,0.00,Wunderground v.1.15,2013-10-09 18:39:00,
2013-10-09 14:44:00,86.9,75.9,29.92,ENE,68,2.0,-999.0,70,0.00,,,0.03,Wunderground v.1.15,2013-10-09 18:44:00,
2013-10-09 14:49:00,86.2,77.3,29.92,East,82,2.0,2.0,75,0.00,,,0.00,Wunderground v.1.15,2013-10-09 18:49:00,
2013-10-09 14:54:00,85.2,77.6,29.92,ENE,68,2.0,-999.0,78,0.01,,,0.03,Wunderground v.1.15,2013-10-09 18:54:00,
2013-10-09 14:55:00,85.2,77.6,29.92,NNW,329,2.0,2.0,78,0.00,,,0.01,Wunderground v.1.15,2013-10-09 18:55:00,
2013-10-09 14:59:00,84.3,77.1,29.92,NW,315,1.0,-999.0,79,0.01,,,0.03,Wunderground v.1.15,2013-10-09 18:59:00,
2013-10-09 15:00:00,84.2,77.0,29.92,NE,56,1.0,2.0,79,0.00,,,0.01,Wunderground v.1.15,2013-10-09 19:00:00,
2013-10-09 15:04:00,84.1,77.6,29.92,East,90,1.0,-999.0,81,0.01,,,0.03,Wunderground v.1.15,2013-10-09 19:04:00,
2013-10-09 15:09:00,84.3,76.7,29.92,ENE,68,3.0,-999.0,78,0.01,,,0.03,Wunderground v.1.15,2013-10-09 19:09:00,
2013-10-09 15:10:00,84.3,76.7,29.92,ENE,64,2.0,6.0,78,0.00,,,0.01,Wunderground v.1.15,2013-10-09 19:10:00,
2013-10-09 15:14:00,84.2,76.6,29.92,ENE,68,4.0,-999.0,78,0.01,,,0.03,Wunderground v.1.15,2013-10-09 19:14:00,
2013-10-09 15:19:00,83.6,76.8,29.93,ENE,68,4.0,-999.0,80,0.01,,,0.03,Wunderground v.1.15,2013-10-09 19:19:00,
2013-10-09 15:20:00,83.6,76.8,29.93,NE,38,4.0,4.0,80,0.00,,,0.01,Wunderground v.1.15,2013-10-09 19:20:00,
2013-10-09 15:24:00,81.6,76.3,29.93,ENE,68,4.0,-999.0,84,0.03,,,0.03,Wunderground v.1.15,2013-10-09 19:24:00,
2013-10-09 15:29:00,80.9,76.7,29.92,ENE,72,3.0,3.0,87,0.08,,,0.03,Wunderground v.1.15,2013-10-09 19:29:00,
2013-10-09 15:34:00,81.2,77.3,29.92,ENE,68,2.0,-999.0,88,0.03,,,0.03,Wunderground v.1.15,2013-10-09 19:34:00,
2013-10-09 15:39:00,81.9,77.6,29.92,ENE,68,2.0,-999.0,87,0.03,,,0.03,Wunderground v.1.15,2013-10-09 19:39:00,
2013-10-09 15:40:00,81.9,77.6,29.92,ENE,64,2.0,3.0,87,0.00,,,0.03,Wunderground v.1.15,2013-10-09 19:40:00,
2013-10-09 15:44:00,82.5,77.5,29.92,ENE,68,3.0,-999.0,85,0.03,,,0.03,Wunderground v.1.15,2013-10-09 19:44:00,
2013-10-09 15:49:00,82.5,77.2,29.92,ENE,68,4.0,-999.0,84,0.03,,,0.03,Wunderground v.1.15,2013-10-09 19:49:00,
2013-10-09 15:50:00,82.5,77.2,29.92,ENE,60,4.0,5.0,84,0.00,,,0.03,Wunderground v.1.15,2013-10-09 19:50:00,
2013-10-09 15:54:00,82.2,76.5,29.92,ENE,68,5.0,-999.0,83,0.02,,,0.03,Wunderground v.1.15,2013-10-09 19:54:00,
2013-10-09 15:59:00,82.0,76.7,29.92,ENE,68,3.0,-999.0,84,0.02,,,0.03,Wunderground v.1.15,2013-10-09 19:59:00,
2013-10-09 16:00:00,82.0,76.7,29.92,NE,49,4.0,4.0,84,0.00,,,0.03,Wunderground v.1.15,2013-10-09 20:00:00,
2013-10-09 16:04:00,81.9,76.2,29.92,ENE,68,4.0,-999.0,83,0.02,,,0.03,Wunderground v.1.15,2013-10-09 20:04:00,
2013-10-09 16:09:00,81.8,75.4,29.92,ENE,68,5.0,-999.0,81,0.02,,,0.03,Wunderground v.1.15,2013-10-09 20:09:00,
2013-10-09 16:10:00,81.8,75.4,29.92,ENE,78,4.0,8.0,81,0.00,,,0.03,Wunderground v.1.15,2013-10-09 20:10:00,
2013-10-09 16:14:00,81.8,75.4,29.92,ENE,68,5.0,-999.0,81,0.02,,,0.03,Wunderground v.1.15,2013-10-09 20:14:00,
2013-10-09 16:19:00,82.0,75.6,29.92,ENE,67,5.0,6.0,81,0.00,,,0.03,Wunderground v.1.15,2013-10-09 20:19:00,
2013-10-09 16:24:00,82.2,75.8,29.92,ENE,68,3.0,-999.0,81,0.00,,,0.03,Wunderground v.1.15,2013-10-09 20:24:00,
2013-10-09 16:29:00,82.6,76.2,29.92,East,79,3.0,3.0,81,0.00,,,0.03,Wunderground v.1.15,2013-10-09 20:29:00,
2013-10-09 16:34:00,82.9,76.1,29.92,ENE,68,1.0,-999.0,80,0.00,,,0.03,Wunderground v.1.15,2013-10-09 20:34:00,
2013-10-09 16:35:00,82.9,76.1,29.92,ENE,61,2.0,6.0,80,0.00,,,0.03,Wunderground v.1.15,2013-10-09 20:35:00,
2013-10-09 16:39:00,82.7,74.4,29.92,ENE,68,4.0,-999.0,76,0.00,,,0.03,Wunderground v.1.15,2013-10-09 20:39:00,
2013-10-09 16:44:00,82.8,75.2,29.92,ENE,60,4.0,7.0,78,0.00,,,0.03,Wunderground v.1.15,2013-10-09 20:44:00,
2013-10-09 16:49:00,82.9,75.7,29.92,ENE,68,2.0,-999.0,79,0.00,,,0.03,Wunderground v.1.15,2013-10-09 20:49:00,
2013-10-09 16:54:00,82.7,75.5,29.92,ENE,71,3.0,5.0,79,0.00,,,0.03,Wunderground v.1.15,2013-10-09 20:54:00,
2013-10-09 16:59:00,82.7,75.9,29.92,ENE,68,3.0,-999.0,80,0.00,,,0.03,Wunderground v.1.15,2013-10-09 20:59:00,
2013-10-09 17:00:00,82.7,75.9,29.92,ENE,64,3.0,3.0,80,0.00,,,0.03,Wunderground v.1.15,2013-10-09 21:00:00,
2013-10-09 17:04:00,82.5,75.3,29.92,ENE,68,4.0,-999.0,79,0.00,,,0.03,Wunderground v.1.15,2013-10-09 21:04:00,
2013-10-09 17:09:00,82.4,75.2,29.92,ENE,64,4.0,4.0,79,0.00,,,0.03,Wunderground v.1.15,2013-10-09 21:09:00,
2013-10-09 17:14:00,82.4,75.2,29.92,ENE,68,3.0,-999.0,79,0.00,,,0.03,Wunderground v.1.15,2013-10-09 21:14:00,
2013-10-09 17:19:00,82.4,75.2,29.92,ENE,68,2.0,-999.0,79,0.00,,,0.03,Wunderground v.1.15,2013-10-09 21:19:00,
2013-10-09 17:20:00,82.4,75.2,29.92,ENE,69,3.0,3.0,79,0.00,,,0.03,Wunderground v.1.15,2013-10-09 21:20:00,
2013-10-09 17:24:00,82.3,75.1,29.92,ENE,68,2.0,-999.0,79,0.00,,,0.03,Wunderground v.1.15,2013-10-09 21:24:00,
2013-10-09 17:29:00,82.3,75.1,29.92,East,79,3.0,3.0,79,0.00,,,0.03,Wunderground v.1.15,2013-10-09 21:29:00,
2013-10-09 17:34:00,82.3,74.7,29.92,ENE,68,3.0,-999.0,78,0.00,,,0.03,Wunderground v.1.15,2013-10-09 21:34:00,
2013-10-09 17:39:00,82.3,75.1,29.92,ENE,64,3.0,7.0,79,0.00,,,0.03,Wunderground v.1.15,2013-10-09 21:39:00,
2013-10-09 17:44:00,82.3,75.1,29.93,ENE,68,2.0,-999.0,79,0.00,,,0.03,Wunderground v.1.15,2013-10-09 21:44:00,
2013-10-09 17:49:00,82.3,75.1,29.93,ENE,68,2.0,-999.0,79,0.00,,,0.03,Wunderground v.1.15,2013-10-09 21:49:00,
2013-10-09 17:50:00,82.3,75.1,29.93,ENE,77,2.0,3.0,79,0.00,,,0.03,Wunderground v.1.15,2013-10-09 21:50:00,
2013-10-09 17:54:00,82.2,75.0,29.93,ENE,68,3.0,-999.0,79,0.00,,,0.03,Wunderground v.1.15,2013-10-09 21:54:00,
2013-10-09 17:59:00,82.1,74.9,29.93,ENE,68,2.0,-999.0,79,0.00,,,0.03,Wunderground v.1.15,2013-10-09 21:59:00,
2013-10-09 18:00:00,82.1,74.9,29.93,ENE,78,3.0,3.0,79,0.00,,,0.03,Wunderground v.1.15,2013-10-09 22:00:00,
2013-10-09 18:04:00,82.0,74.8,29.93,ENE,68,2.0,-999.0,79,0.00,,,0.03,Wunderground v.1.15,2013-10-09 22:04:00,
2013-10-09 18:09:00,81.9,74.7,29.93,ENE,68,2.0,-999.0,79,0.00,,,0.03,Wunderground v.1.15,2013-10-09 22:09:00,
2013-10-09 18:10:00,81.9,74.7,29.93,ENE,73,2.0,2.0,79,0.00,,,0.03,Wunderground v.1.15,2013-10-09 22:10:00,
2013-10-09 18:14:00,81.8,75.0,29.93,ENE,68,1.0,-999.0,80,0.00,,,0.03,Wunderground v.1.15,2013-10-09 22:14:00,
2013-10-09 18:19:00,81.7,75.3,29.93,East,79,2.0,3.0,81,0.00,,,0.03,Wunderground v.1.15,2013-10-09 22:19:00,
2013-10-09 18:24:00,81.6,75.2,29.93,ENE,68,2.0,-999.0,81,0.00,,,0.03,Wunderground v.1.15,2013-10-09 22:24:00,
2013-10-09 18:29:00,81.5,75.1,29.93,ENE,68,2.0,-999.0,81,0.00,,,0.03,Wunderground v.1.15,2013-10-09 22:29:00,
2013-10-09 18:30:00,81.5,75.1,29.93,ENE,72,2.0,2.0,81,0.00,,,0.03,Wunderground v.1.15,2013-10-09 22:30:00,
2013-10-09 18:34:00,81.5,75.5,29.93,ENE,68,1.0,-999.0,82,0.00,,,0.03,Wunderground v.1.15,2013-10-09 22:34:00,
2013-10-09 18:39:00,81.5,75.5,29.93,ENE,68,1.0,-999.0,82,0.00,,,0.03,Wunderground v.1.15,2013-10-09 22:39:00,
2013-10-09 18:40:00,81.5,75.5,29.93,ENE,72,1.0,1.0,82,0.00,,,0.03,Wunderground v.1.15,2013-10-09 22:40:00,
2013-10-09 18:44:00,81.5,75.5,29.93,ENE,68,0.0,-999.0,82,0.00,,,0.03,Wunderground v.1.15,2013-10-09 22:44:00,
2013-10-09 18:49:00,81.4,75.4,29.93,East,86,1.0,1.0,82,0.00,,,0.03,Wunderground v.1.15,2013-10-09 22:49:00,
2013-10-09 18:54:00,81.4,75.4,29.93,East,90,0.0,-999.0,82,0.00,,,0.03,Wunderground v.1.15,2013-10-09 22:54:00,
2013-10-09 18:59:00,81.4,75.4,29.93,ENE,68,0.0,-999.0,82,0.00,,,0.03,Wunderground v.1.15,2013-10-09 22:59:00,
2013-10-09 19:00:00,81.4,75.4,29.93,ENE,67,0.0,0.0,82,0.00,,,0.03,Wunderground v.1.15,2013-10-09 23:00:00,
2013-10-09 19:04:00,81.4,75.4,29.93,ENE,68,0.0,-999.0,82,0.00,,,0.03,Wunderground v.1.15,2013-10-09 23:04:00,
2013-10-09 19:09:00,81.4,75.4,29.93,East,79,1.0,1.0,82,0.00,,,0.03,Wunderground v.1.15,2013-10-09 23:09:00,
2013-10-09 19:14:00,81.4,75.4,29.93,ENE,68,2.0,-999.0,82,0.00,,,0.03,Wunderground v.1.15,2013-10-09 23:14:00,
2013-10-09 19:19:00,81.4,75.4,29.93,ENE,68,1.0,-999.0,82,0.00,,,0.03,Wunderground v.1.15,2013-10-09 23:19:00,
2013-10-09 19:20:00,81.4,75.4,29.93,ENE,62,1.0,1.0,82,0.00,,,0.03,Wunderground v.1.15,2013-10-09 23:20:00,
2013-10-09 19:24:00,81.5,75.5,29.93,ENE,68,1.0,-999.0,82,0.00,,,0.03,Wunderground v.1.15,2013-10-09 23:24:00,
2013-10-09 19:29:00,81.5,75.5,29.93,ENE,68,1.0,1.0,82,0.00,,,0.03,Wunderground v.1.15,2013-10-09 23:29:00,
2013-10-09 19:34:00,81.3,74.9,29.93,ENE,68,4.0,-999.0,81,0.00,,,0.03,Wunderground v.1.15,2013-10-09 23:34:00,
2013-10-09 19:39:00,81.3,74.5,29.93,East,81,3.0,4.0,80,0.00,,,0.03,Wunderground v.1.15,2013-10-09 23:39:00,
2013-10-09 19:44:00,81.2,74.4,29.93,ENE,68,3.0,-999.0,80,0.00,,,0.03,Wunderground v.1.15,2013-10-09 23:44:00,
2013-10-09 19:45:00,81.2,74.4,29.93,ENE,76,3.0,4.0,80,0.00,,,0.03,Wunderground v.1.15,2013-10-09 23:45:00,
2013-10-09 19:49:00,81.2,74.4,29.94,ENE,68,3.0,-999.0,80,0.00,,,0.03,Wunderground v.1.15,2013-10-09 23:49:00,
2013-10-09 19:54:00,81.2,74.4,29.94,ENE,68,2.0,-999.0,80,0.00,,,0.03,Wunderground v.1.15,2013-10-09 23:54:00,
2013-10-09 19:55:00,81.2,74.4,29.94,NE,56,3.0,3.0,80,0.00,,,0.03,Wunderground v.1.15,2013-10-09 23:55:00,
2013-10-09 19:59:00,81.1,74.7,29.94,ENE,68,3.0,-999.0,81,0.00,,,0.03,Wunderground v.1.15,2013-10-09 23:59:00,
2013-10-09 20:00:00,81.1,74.7,29.94,ENE,61,3.0,3.0,81,0.00,,,0.03,Wunderground v.1.15,2013-10-10 00:00:00,
2013-10-09 20:04:00,81.1,74.3,29.94,ENE,68,2.0,-999.0,80,0.00,,,0.03,Wunderground v.1.15,2013-10-10 00:04:00,
2013-10-09 20:09:00,81.0,74.6,29.94,ENE,68,3.0,-999.0,81,0.00,,,0.03,Wunderground v.1.15,2013-10-10 00:09:00,
2013-10-09 20:10:00,81.0,74.6,29.94,ENE,69,3.0,4.0,81,0.00,,,0.03,Wunderground v.1.15,2013-10-10 00:10:00,
2013-10-09 20:14:00,81.0,74.6,29.94,ENE,68,3.0,-999.0,81,0.00,,,0.03,Wunderground v.1.15,2013-10-10 00:14:00,
2013-10-09 20:19:00,80.9,74.5,29.94,ENE,61,3.0,3.0,81,0.00,,,0.03,Wunderground v.1.15,2013-10-10 00:19:00,
2013-10-09 20:24:00,80.8,74.4,29.94,ENE,68,3.0,-999.0,81,0.00,,,0.03,Wunderground v.1.15,2013-10-10 00:24:00,
2013-10-09 20:29:00,80.8,74.8,29.94,ENE,68,1.0,-999.0,82,0.00,,,0.03,Wunderground v.1.15,2013-10-10 00:29:00,
2013-10-09 20:30:00,80.8,74.8,29.94,ENE,74,2.0,2.0,82,0.00,,,0.03,Wunderground v.1.15,2013-10-10 00:30:00,
2013-10-09 20:34:00,80.6,74.6,29.95,ENE,68,3.0,-999.0,82,0.00,,,0.03,Wunderground v.1.15,2013-10-10 00:34:00,
2013-10-09 20:39:00,80.6,74.6,29.94,ENE,68,2.0,-999.0,82,0.00,,,0.03,Wunderground v.1.15,2013-10-10 00:39:00,
2013-10-09 20:40:00,80.6,74.6,29.94,ENE,70,3.0,3.0,82,0.00,,,0.03,Wunderground v.1.15,2013-10-10 00:40:00,
2013-10-09 20:44:00,80.4,74.4,29.94,ENE,68,2.0,-999.0,82,0.00,,,0.03,Wunderground v.1.15,2013-10-10 00:44:00,
2013-10-09 20:49:00,80.3,74.3,29.94,ENE,68,2.0,-999.0,82,0.00,,,0.03,Wunderground v.1.15,2013-10-10 00:49:00,
2013-10-09 20:50:00,80.3,74.3,29.94,ENE,58,2.0,2.0,82,0.00,,,0.03,Wunderground v.1.15,2013-10-10 00:50:00,
2013-10-09 20:54:00,80.2,74.6,29.95,ENE,68,2.0,-999.0,83,0.00,,,0.03,Wunderground v.1.15,2013-10-10 00:54:00,
2013-10-09 20:59:00,80.1,74.5,29.95,ENE,68,1.0,-999.0,83,0.00,,,0.03,Wunderground v.1.15,2013-10-10 00:59:00,
2013-10-09 21:00:00,80.1,74.5,29.95,ENE,60,2.0,2.0,83,0.00,,,0.03,Wunderground v.1.15,2013-10-10 01:00:00,
2013-10-09 21:04:00,79.9,74.3,29.95,ENE,68,3.0,-999.0,83,0.00,,,0.03,Wunderground v.1.15,2013-10-10 01:04:00,
2013-10-09 21:09:00,79.8,74.2,29.95,NNE,30,3.0,3.0,83,0.00,,,0.03,Wunderground v.1.15,2013-10-10 01:09:00,
2013-10-09 21:14:00,79.7,74.4,29.96,ENE,68,2.0,-999.0,84,0.00,,,0.03,Wunderground v.1.15,2013-10-10 01:14:00,
2013-10-09 21:19:00,79.7,74.4,29.96,East,79,2.0,3.0,84,0.00,,,0.03,Wunderground v.1.15,2013-10-10 01:19:00,
2013-10-09 21:24:00,79.7,74.4,29.96,ENE,68,2.0,-999.0,84,0.00,,,0.03,Wunderground v.1.15,2013-10-10 01:24:00,
2013-10-09 21:25:00,79.7,74.4,29.96,ENE,77,2.0,3.0,84,0.00,,,0.03,Wunderground v.1.15,2013-10-10 01:25:00,
2013-10-09 21:29:00,79.7,74.4,29.96,ENE,68,2.0,-999.0,84,0.00,,,0.03,Wunderground v.1.15,2013-10-10 01:29:00,
2013-10-09 21:35:00,79.5,74.2,29.96,NE,49,3.0,3.0,84,0.00,,,0.03,Wunderground v.1.15,2013-10-10 01:35:00,
2013-10-09 21:39:00,79.5,74.2,29.96,ENE,68,3.0,-999.0,84,0.00,,,0.03,Wunderground v.1.15,2013-10-10 01:39:00,
2013-10-09 21:44:00,79.5,74.2,29.96,ESE,120,2.0,3.0,84,0.00,,,0.03,Wunderground v.1.15,2013-10-10 01:44:00,
2013-10-09 21:49:00,79.5,74.2,29.97,ENE,68,2.0,-999.0,84,0.00,,,0.03,Wunderground v.1.15,2013-10-10 01:49:00,
2013-10-09 21:54:00,79.4,74.1,29.97,ENE,69,2.0,2.0,84,0.00,,,0.03,Wunderground v.1.15,2013-10-10 01:54:00,
2013-10-09 21:59:00,79.2,73.9,29.97,ENE,68,1.0,-999.0,84,0.00,,,0.03,Wunderground v.1.15,2013-10-10 01:59:00,
2013-10-09 22:00:00,79.2,73.9,29.97,ENE,69,2.0,2.0,84,0.00,,,0.03,Wunderground v.1.15,2013-10-10 02:00:00,
2013-10-09 22:04:00,79.1,74.2,29.97,ENE,68,1.0,-999.0,85,0.00,,,0.03,Wunderground v.1.15,2013-10-10 02:04:00,
2013-10-09 22:09:00,79.0,74.1,29.98,ENE,61,1.0,2.0,85,0.00,,,0.03,Wunderground v.1.15,2013-10-10 02:09:00,
2013-10-09 22:14:00,78.9,74.0,29.98,ENE,68,3.0,-999.0,85,0.00,,,0.03,Wunderground v.1.15,2013-10-10 02:14:00,
2013-10-09 22:15:00,78.9,74.0,29.98,NNE,12,2.0,2.0,85,0.00,,,0.03,Wunderground v.1.15,2013-10-10 02:15:00,
2013-10-09 22:19:00,78.9,74.0,29.98,ENE,68,2.0,-999.0,85,0.00,,,0.03,Wunderground v.1.15,2013-10-10 02:19:00,
2013-10-09 22:24:00,78.8,73.9,29.98,ENE,67,1.0,2.0,85,0.00,,,0.03,Wunderground v.1.15,2013-10-10 02:24:00,
2013-10-09 22:29:00,78.8,73.9,29.98,ENE,68,1.0,-999.0,85,0.00,,,0.03,Wunderground v.1.15,2013-10-10 02:29:00,
2013-10-09 22:34:00,78.7,73.8,29.99,ENE,64,1.0,8.0,85,0.00,,,0.03,Wunderground v.1.15,2013-10-10 02:34:00,
2013-10-09 22:39:00,78.7,73.8,29.99,ENE,68,2.0,-999.0,85,0.00,,,0.03,Wunderground v.1.15,2013-10-10 02:39:00,
2013-10-09 22:40:00,78.7,73.8,29.99,ENE,76,1.0,4.0,85,0.00,,,0.03,Wunderground v.1.15,2013-10-10 02:40:00,
2013-10-09 22:44:00,78.7,73.8,29.98,ENE,68,2.0,-999.0,85,0.00,,,0.03,Wunderground v.1.15,2013-10-10 02:44:00,
2013-10-09 22:49:00,78.7,73.8,29.99,ENE,68,1.0,-999.0,85,0.00,,,0.03,Wunderground v.1.15,2013-10-10 02:49:00,
2013-10-09 22:50:00,78.7,73.8,29.99,ENE,74,1.0,1.0,85,0.00,,,0.03,Wunderground v.1.15,2013-10-10 02:50:00,
2013-10-09 22:54:00,78.6,73.7,29.98,NE,45,0.0,-999.0,85,0.00,,,0.03,Wunderground v.1.15,2013-10-10 02:54:00,
2013-10-09 22:59:00,78.6,73.7,29.98,ENE,68,1.0,-999.0,85,0.00,,,0.03,Wunderground v.1.15,2013-10-10 02:59:00,
2013-10-09 23:00:00,78.6,73.7,29.98,ENE,78,1.0,1.0,85,0.00,,,0.03,Wunderground v.1.15,2013-10-10 03:00:00,
2013-10-09 23:04:00,78.5,74.0,29.99,ENE,68,1.0,-999.0,86,0.00,,,0.03,Wunderground v.1.15,2013-10-10 03:04:00,
2013-10-09 23:09:00,78.5,74.0,29.98,ENE,68,1.0,-999.0,86,0.00,,,0.03,Wunderground v.1.15,2013-10-10 03:09:00,
2013-10-09 23:10:00,78.5,74.0,29.98,ENE,70,1.0,1.0,86,0.00,,,0.03,Wunderground v.1.15,2013-10-10 03:10:00,
2013-10-09 23:14:00,78.5,74.0,29.98,ENE,68,1.0,-999.0,86,0.00,,,0.03,Wunderground v.1.15,2013-10-10 03:14:00,
2013-10-09 23:19:00,78.5,74.0,29.98,NE,47,1.0,1.0,86,0.00,,,0.03,Wunderground v.1.15,2013-10-10 03:19:00,
2013-10-09 23:24:00,78.4,73.5,29.98,ENE,68,0.0,-999.0,85,0.00,,,0.03,Wunderground v.1.15,2013-10-10 03:24:00,
2013-10-09 23:25:00,78.4,73.5,29.98,ENE,74,0.0,1.0,85,0.00,,,0.03,Wunderground v.1.15,2013-10-10 03:25:00,
2013-10-09 23:29:00,78.3,73.8,29.98,ENE,68,1.0,-999.0,86,0.00,,,0.03,Wunderground v.1.15,2013-10-10 03:29:00,
2013-10-09 23:34:00,78.3,73.8,29.98,ENE,68,1.0,-999.0,86,0.00,,,0.03,Wunderground v.1.15,2013-10-10 03:34:00,
2013-10-09 23:35:00,78.3,73.8,29.98,NNE,12,1.0,5.0,86,0.00,,,0.03,Wunderground v.1.15,2013-10-10 03:35:00,
2013-10-09 23:39:00,78.3,73.8,29.98,ENE,68,1.0,-999.0,86,0.00,,,0.03,Wunderground v.1.15,2013-10-10 03:39:00,
2013-10-09 23:44:00,78.2,73.7,29.98,ENE,67,1.0,4.0,86,0.00,,,0.03,Wunderground v.1.15,2013-10-10 03:44:00,
2013-10-09 23:49:00,78.0,73.5,29.97,ENE,68,1.0,-999.0,86,0.00,,,0.03,Wunderground v.1.15,2013-10-10 03:49:00,
2013-10-09 23:54:00,78.0,73.5,29.97,ENE,71,1.0,1.0,86,0.00,,,0.03,Wunderground v.1.15,2013-10-10 03:54:00,
2013-10-09 23:59:00,77.9,73.4,29.97,ENE,68,1.0,-999.0,86,0.00,,,0.03,Wunderground v.1.15,2013-10-10 03:59:00,